Home > Weather > Alpena > Past weeks

Flag for USA Weather for the Past 2 Weeks in Alpena, Michigan, USA

Now
54 °F

Overcast.


Feels Like: 52 °F
Forecast: 37 / 49 °F
Wind: 8 mph from Northeast

Location: Alpena County Regional Airport

Current Time: May 1, 2016 at 6:25:38 PM

Latest Report: May 1, 2016 at 4:54 PM


Visibility: 10 mi

Pressure: 30.10 "Hg

Humidity: 45%

Dew Point: 33 °F

Location of AlpenaLocation

Historic Weather in Alpena — Graph

°F

Alpena Temperature Yesterday

Maximum temperature yesterday: 57 °F (at 12:54 PM)
Minimum temperature yesterday: 28 °F (at 5:54 AM)
Average temperature yesterday: 45 °F

High & Low Weather Summary for the Past Weeks

 TemperatureHumidityPressure
High79 °F (Apr 18, 12:54 PM)100% (Apr 26, 8:54 AM)30.47 "Hg (Apr 26, 8:54 AM)
Low28 °F (Apr 30, 5:54 AM)21% (Apr 27, 2:54 PM)29.78 "Hg (Apr 21, 5:54 PM)
Average44 °F65%30.15 "Hg
* Reported Apr 16 4:54 PM — May 1 4:54 PM, Alpena, Weather by CustomWeather, © 2016

Note: Actual official high and low records may vary slightly from our data, if they occured in-between our weather recording intervals... More about our weather records

Advertising

Alpena Weather History for the Previous 24 Hours

Scroll right to see more
 ConditionsComfort  
Time TempWeatherWind HumidityBarometerVisibility
4:54 PM
Sun, May 1
54 °FOvercast.8 mph45%30.10 "Hg10 mi
3:54 PM53 °FOvercast.10 mph47%30.11 "Hg10 mi
2:54 PM52 °FMostly cloudy.15 mph53%30.12 "Hg10 mi
1:54 PM52 °FMostly cloudy.12 mph59%30.12 "Hg10 mi
12:54 PM49 °FLight rain. Cloudy.7 mph74%30.14 "Hg10 mi
11:54 AM47 °FLight rain. Mostly cloudy.6 mph80%30.14 "Hg10 mi
10:54 AM46 °FLight rain. Overcast.7 mph86%30.14 "Hg10 mi
9:54 AM45 °FLight rain. Overcast.7 mph86%30.13 "Hg10 mi
8:54 AM44 °FLight rain. Mostly cloudy.5 mph82%30.11 "Hg10 mi
7:54 AM45 °FLight rain. More clouds than sun.7 mph68%30.10 "Hg10 mi
6:54 AM44 °FMostly cloudy.6 mph68%30.08 "Hg10 mi
5:54 AM45 °FOvercast.5 mph63%30.08 "Hg10 mi
4:54 AM46 °FMostly cloudy.8 mph56%30.06 "Hg10 mi
3:54 AM45 °FPassing clouds.5 mph58%30.03 "Hg10 mi
2:54 AM44 °FClear.5 mph55%30.06 "Hg10 mi
1:54 AM45 °FClear.3 mph56%30.09 "Hg10 mi
12:54 AM46 °FOvercast.8 mph56%30.10 "Hg10 mi
11:54 PM
Sat, Apr 30
46 °FMostly cloudy.5 mph54%30.11 "Hg10 mi
10:54 PM46 °FOvercast.5 mph54%30.12 "Hg10 mi
9:54 PM46 °FClear.5 mph51%30.12 "Hg10 mi
8:54 PM47 °FSunny.3 mph54%30.13 "Hg10 mi
7:54 PM49 °FSunny.3 mph46%30.14 "Hg10 mi
6:54 PM51 °FSunny.6 mph41%30.15 "Hg10 mi
Weather by CustomWeather, © 2016

See weather overviewHow to use our weather pages